Location: Bacharowice
(49.9333°N, 19.5833°E)
Time: 13:06:45
(UTC+00:00)

Cosmos 1743 - Pass Details

Date: 11 May 2021
Orbit: 510 x 525 km, 82.6° (Epoch: 22 June)

Event Time Altitude Azimuth Distance (km) Brightness Sun altitude
Rises 21:07:18 0° 349° (NNW) 2,653 7.8 -19.1°
Reaches altitude 10° 21:09:27 10° 348° (NNW) 1,763 6.6 -19.2°
Maximum altitude 21:13:18 79° 263° (W) 537 2.7 -19.4°
Enters shadow 21:14:06 54° 188° (S) 636 2.7 -19.5°
